BAW872 EGLL-EPKK

Flight info

Callsign BAW872
Flight time 1h 58m
Altitude 37000
Route N0444F370 BPK6J BPK Q295 MATCH DCT REDFA DCT TACHA DCT NIGUG DCT PODER DCT NOMKA DCT OMELO DCT OMIFU DCT SOPAV DCT PADKA PADKA4G
Aircraft A320/M-SDE3FGIJ1KRWXY/SB1

Departure

Time 2026-05-05 16:22
Airport London Heathrow Airport (EGLL)

Arrival

Time 2026-05-05 18:20
Airport Kraków John Paul II International Airport (EPKK)
Time Latitude Longitude Altitude Speed Heading
2026-05-05 15:34 51.46930 -0.48787 90 ft 0 kts 360°
2026-05-05 16:09 51.46926 -0.48787 86 ft 3 kts 360°
2026-05-05 16:10 51.46900 -0.48787 88 ft 3 kts 360°
2026-05-05 16:10 51.46882 -0.48788 88 ft 4 kts 42°
2026-05-05 16:10 51.46876 -0.48806 87 ft 3 kts 90°
2026-05-05 16:10 51.46876 -0.48777 87 ft 0 kts 90°
2026-05-05 16:13 51.46876 -0.48771 88 ft 2 kts 94°
2026-05-05 16:13 51.46861 -0.48749 90 ft 4 kts 161°
2026-05-05 16:13 51.46831 -0.48751 86 ft 0 kts 181°
2026-05-05 16:14 51.46823 -0.48750 86 ft 0 kts 180°
2026-05-05 16:14 51.46747 -0.48749 86 ft 12 kts 179°
2026-05-05 16:15 51.46597 -0.48769 89 ft 1 kts 199°
2026-05-05 16:15 51.46589 -0.48773 88 ft 0 kts 199°
2026-05-05 16:19 51.46577 -0.48780 87 ft 6 kts 199°
2026-05-05 16:20 51.46478 -0.48701 89 ft 11 kts 107°
2026-05-05 16:20 51.46478 -0.48629 86 ft 0 kts 89°
2026-05-05 16:22 51.46485 -0.46587 90 ft 143 kts 90°
2026-05-05 16:22 51.46555 -0.42976 1024 ft 163 kts 76°
2026-05-05 16:23 51.47625 -0.39485 1864 ft 199 kts 51°
2026-05-05 16:23 51.48547 -0.37654 2251 ft 223 kts 50°
2026-05-05 16:23 51.50682 -0.33510 3585 ft 250 kts 50°
2026-05-05 16:24 51.51792 -0.31338 4469 ft 254 kts 53°
2026-05-05 16:24 51.52576 -0.28756 5322 ft 261 kts 70°
2026-05-05 16:24 51.53760 -0.23153 7031 ft 270 kts 69°
2026-05-05 16:25 51.54475 -0.20391 7783 ft 274 kts 54°
2026-05-05 16:25 51.57790 -0.17664 9427 ft 280 kts 10°
2026-05-05 16:25 51.59711 -0.16988 10198 ft 285 kts 11°
2026-05-05 16:26 51.63901 -0.15558 10700 ft 329 kts 12°
2026-05-05 16:26 51.68448 -0.13711 11927 ft 341 kts 15°
2026-05-05 16:27 51.70707 -0.12497 12571 ft 346 kts 25°
2026-05-05 16:27 51.72732 -0.10362 13221 ft 350 kts 41°
2026-05-05 16:27 51.74343 -0.07398 13883 ft 355 kts 56°
2026-05-05 16:27 51.75420 -0.03792 14446 ft 359 kts 72°
2026-05-05 16:28 51.75901 0.00179 14996 ft 363 kts 82°
2026-05-05 16:28 51.76235 0.04221 15621 ft 365 kts 82°
2026-05-05 16:28 51.76569 0.08299 16208 ft 368 kts 82°
2026-05-05 16:28 51.76902 0.12415 16783 ft 371 kts 82°
2026-05-05 16:29 51.77238 0.16562 17351 ft 374 kts 82°
2026-05-05 16:29 51.77578 0.20741 17924 ft 378 kts 82°
2026-05-05 16:29 51.77946 0.24965 18459 ft 381 kts 78°
2026-05-05 16:29 51.78585 0.29128 18945 ft 385 kts 75°
2026-05-05 16:30 51.79255 0.33282 19447 ft 388 kts 75°
2026-05-05 16:30 51.79943 0.37579 19960 ft 392 kts 75°
2026-05-05 16:30 51.80616 0.41797 20422 ft 395 kts 75°
2026-05-05 16:30 51.81303 0.46121 20859 ft 400 kts 76°
2026-05-05 16:31 51.82001 0.50516 21275 ft 405 kts 76°
2026-05-05 16:31 51.82699 0.54939 21752 ft 407 kts 76°
2026-05-05 16:31 51.83399 0.59400 22218 ft 410 kts 76°
2026-05-05 16:31 51.84103 0.63898 22646 ft 414 kts 76°
2026-05-05 16:32 51.84809 0.68418 23108 ft 416 kts 76°
2026-05-05 16:32 51.85521 0.72977 23529 ft 420 kts 76°
2026-05-05 16:32 51.86207 0.77382 23915 ft 422 kts 76°
2026-05-05 16:32 51.86925 0.82007 24303 ft 424 kts 76°
2026-05-05 16:33 51.87646 0.86648 24687 ft 426 kts 76°
2026-05-05 16:33 51.88360 0.91251 25070 ft 428 kts 77°
2026-05-05 16:33 51.89085 0.95938 25447 ft 431 kts 77°
2026-05-05 16:33 51.89811 1.00653 25859 ft 431 kts 77°
2026-05-05 16:34 51.90532 1.05373 26250 ft 433 kts 78°
2026-05-05 16:34 51.91251 1.10119 26640 ft 434 kts 78°
2026-05-05 16:34 51.91970 1.14879 26999 ft 436 kts 77°
2026-05-05 16:34 51.92695 1.19672 27368 ft 439 kts 78°
2026-05-05 16:35 51.93424 1.24488 27733 ft 441 kts 78°
2026-05-05 16:35 51.94155 1.29331 28106 ft 443 kts 78°
2026-05-05 16:35 51.94887 1.34195 28469 ft 445 kts 78°
2026-05-05 16:35 51.95621 1.39092 28824 ft 448 kts 78°
2026-05-05 16:36 51.96356 1.44017 29163 ft 450 kts 78°
2026-05-05 16:36 51.97091 1.48956 29464 ft 453 kts 78°
2026-05-05 16:36 51.97835 1.53945 29793 ft 455 kts 78°
2026-05-05 16:36 51.98577 1.58935 30206 ft 455 kts 78°
2026-05-05 16:37 51.99316 1.63926 30643 ft 454 kts 78°
2026-05-05 16:37 52.00048 1.68899 31088 ft 452 kts 78°
2026-05-05 16:37 52.00774 1.73859 31553 ft 450 kts 78°
2026-05-05 16:37 52.01494 1.78795 32022 ft 449 kts 78°
2026-05-05 16:38 52.02212 1.83718 32491 ft 447 kts 79°
2026-05-05 16:38 52.02924 1.88626 32959 ft 445 kts 79°
2026-05-05 16:38 52.03621 1.93463 33367 ft 445 kts 79°
2026-05-05 16:38 52.04327 1.98385 33711 ft 447 kts 79°
2026-05-05 16:39 52.05034 2.03303 34043 ft 447 kts 79°
2026-05-05 16:39 52.05744 2.08239 34366 ft 448 kts 79°
2026-05-05 16:39 52.06447 2.13156 34673 ft 448 kts 79°
2026-05-05 16:39 52.07150 2.18093 34981 ft 448 kts 79°
2026-05-05 16:40 52.07851 2.23027 35284 ft 448 kts 79°
2026-05-05 16:40 52.08549 2.27966 35579 ft 448 kts 79°
2026-05-05 16:40 52.09245 2.32898 35872 ft 448 kts 79°
2026-05-05 16:40 52.09940 2.37838 36152 ft 448 kts 79°
2026-05-05 16:41 52.10631 2.42776 36434 ft 448 kts 79°
2026-05-05 16:41 52.11320 2.47718 36674 ft 448 kts 79°
2026-05-05 16:41 52.12077 2.52656 36885 ft 451 kts 76°
2026-05-05 16:41 52.12957 2.57584 36948 ft 456 kts 74°
2026-05-05 16:42 52.14917 2.67398 36951 ft 461 kts 73°
2026-05-05 16:42 52.16913 2.77344 36949 ft 461 kts 74°
2026-05-05 16:43 52.18819 2.87337 36949 ft 461 kts 75°
2026-05-05 16:43 52.20669 2.97353 36932 ft 461 kts 75°
2026-05-05 16:44 52.22507 3.07329 36938 ft 461 kts 75°
2026-05-05 16:44 52.24359 3.17365 36975 ft 461 kts 77°
2026-05-05 16:45 52.25129 3.27656 36970 ft 456 kts 95°
2026-05-05 16:45 52.24288 3.37856 36954 ft 454 kts 102°
2026-05-05 16:46 52.23299 3.48041 36947 ft 454 kts 102°
2026-05-05 16:46 52.22314 3.58216 36930 ft 454 kts 102°
2026-05-05 16:47 52.21320 3.68383 36941 ft 454 kts 102°
2026-05-05 16:47 52.20316 3.78499 36931 ft 454 kts 102°
2026-05-05 16:48 52.19293 3.88671 36940 ft 454 kts 102°
2026-05-05 16:48 52.18261 3.98858 36916 ft 454 kts 102°
2026-05-05 16:49 52.17230 4.08948 36924 ft 454 kts 102°
2026-05-05 16:49 52.16183 4.19093 36919 ft 454 kts 102°
2026-05-05 16:50 52.15129 4.29236 36919 ft 454 kts 102°
2026-05-05 16:50 52.14073 4.39377 36924 ft 454 kts 102°
2026-05-05 16:51 52.13184 4.47794 36922 ft 454 kts 102°
2026-05-05 16:51 52.12107 4.57918 36919 ft 454 kts 103°
2026-05-05 16:52 52.11021 4.68021 36916 ft 454 kts 103°
2026-05-05 16:52 52.09925 4.78130 36926 ft 454 kts 103°
2026-05-05 16:53 52.08825 4.88234 36926 ft 453 kts 103°
2026-05-05 16:53 52.07714 4.98327 36911 ft 453 kts 103°
2026-05-05 16:54 52.06588 5.08415 36911 ft 453 kts 103°
2026-05-05 16:54 52.05458 5.18492 36905 ft 453 kts 103°
2026-05-05 16:55 52.04327 5.28503 36907 ft 453 kts 103°
2026-05-05 16:55 52.03204 5.38527 36906 ft 453 kts 103°
2026-05-05 16:56 52.02070 5.48624 36890 ft 454 kts 103°
2026-05-05 16:56 52.00934 5.58713 36888 ft 454 kts 103°
2026-05-05 16:57 51.99781 5.68821 36900 ft 455 kts 104°
2026-05-05 16:57 51.98630 5.78840 36902 ft 455 kts 104°
2026-05-05 16:58 51.97462 5.88930 36902 ft 455 kts 104°
2026-05-05 16:58 51.96278 5.99031 36907 ft 455 kts 104°
2026-05-05 16:59 51.95086 6.09119 36907 ft 455 kts 104°
2026-05-05 16:59 51.93896 6.19135 36907 ft 455 kts 104°
2026-05-05 17:00 51.92684 6.29210 36907 ft 455 kts 104°
2026-05-05 17:00 51.91475 6.39278 36894 ft 456 kts 105°
2026-05-05 17:01 51.90254 6.49363 36887 ft 456 kts 105°
2026-05-05 17:01 51.89017 6.59431 36889 ft 456 kts 105°
2026-05-05 17:02 51.87769 6.69514 36892 ft 456 kts 105°
2026-05-05 17:02 51.86516 6.79587 36894 ft 456 kts 105°
2026-05-05 17:03 51.85252 6.89660 36886 ft 456 kts 105°
2026-05-05 17:03 51.83990 6.99642 36888 ft 456 kts 105°
2026-05-05 17:04 51.82719 7.09670 36889 ft 455 kts 105°
2026-05-05 17:04 51.81448 7.19668 36896 ft 453 kts 106°
2026-05-05 17:05 51.80161 7.29626 36900 ft 452 kts 106°
2026-05-05 17:05 51.78863 7.39564 36883 ft 451 kts 106°
2026-05-05 17:06 51.77569 7.49498 36888 ft 451 kts 106°
2026-05-05 17:06 51.76270 7.59400 36869 ft 451 kts 106°
2026-05-05 17:07 51.74954 7.69298 36866 ft 451 kts 107°
2026-05-05 17:07 51.73627 7.79181 36852 ft 451 kts 107°
2026-05-05 17:08 51.72312 7.89010 36852 ft 451 kts 107°
2026-05-05 17:08 51.70976 7.98913 36851 ft 452 kts 107°
2026-05-05 17:09 51.69631 8.08804 36857 ft 452 kts 107°
2026-05-05 17:09 51.68271 8.18689 36857 ft 452 kts 107°
2026-05-05 17:10 51.66902 8.28577 36835 ft 452 kts 107°
2026-05-05 17:10 51.65524 8.38456 36836 ft 452 kts 107°
2026-05-05 17:11 51.64140 8.48355 36838 ft 453 kts 107°
2026-05-05 17:11 51.62756 8.58193 36836 ft 453 kts 107°
2026-05-05 17:12 51.61361 8.68060 36838 ft 453 kts 105°
2026-05-05 17:12 51.60481 8.78160 36825 ft 456 kts 102°
2026-05-05 17:13 51.59642 8.88281 36832 ft 457 kts 102°
2026-05-05 17:13 51.58773 8.98394 36833 ft 457 kts 102°
2026-05-05 17:14 51.57893 9.08514 36832 ft 457 kts 102°
2026-05-05 17:14 51.57013 9.18636 36831 ft 457 kts 102°
2026-05-05 17:15 51.56130 9.28760 36833 ft 457 kts 102°
2026-05-05 17:15 51.55235 9.38869 36820 ft 457 kts 102°
2026-05-05 17:16 51.54337 9.48916 36823 ft 457 kts 102°
2026-05-05 17:16 51.53430 9.58994 36823 ft 457 kts 102°
2026-05-05 17:17 51.52507 9.69096 36808 ft 457 kts 103°
2026-05-05 17:17 51.51575 9.79192 36817 ft 457 kts 103°
2026-05-05 17:18 51.50635 9.89279 36828 ft 457 kts 103°
2026-05-05 17:18 51.49688 9.99379 36836 ft 457 kts 103°
2026-05-05 17:19 51.48734 10.09485 36838 ft 458 kts 103°
2026-05-05 17:19 51.47768 10.19597 36822 ft 458 kts 103°
2026-05-05 17:20 51.46791 10.29696 36818 ft 458 kts 103°
2026-05-05 17:20 51.45809 10.39729 36819 ft 458 kts 103°
2026-05-05 17:21 51.44805 10.49809 36829 ft 457 kts 106°
2026-05-05 17:22 51.42511 10.64595 36827 ft 455 kts 109°
2026-05-05 17:22 51.40942 10.74420 36826 ft 456 kts 109°
2026-05-05 17:23 51.39364 10.84264 36834 ft 456 kts 109°
2026-05-05 17:23 51.37784 10.94087 36837 ft 456 kts 109°
2026-05-05 17:24 51.36198 11.03906 36838 ft 456 kts 109°
2026-05-05 17:24 51.34601 11.13724 36817 ft 456 kts 109°
2026-05-05 17:25 51.32988 11.23535 36824 ft 457 kts 109°
2026-05-05 17:25 51.31369 11.33362 36836 ft 457 kts 109°
2026-05-05 17:26 51.29743 11.43185 36837 ft 457 kts 109°
2026-05-05 17:26 51.28106 11.53001 36805 ft 457 kts 109°
2026-05-05 17:27 51.26461 11.62822 36812 ft 458 kts 109°
2026-05-05 17:27 51.24803 11.72645 36809 ft 459 kts 109°
2026-05-05 17:28 51.23137 11.82468 36801 ft 459 kts 110°
2026-05-05 17:28 51.21460 11.92314 36803 ft 459 kts 110°
2026-05-05 17:29 51.19788 12.02071 36789 ft 460 kts 109°
2026-05-05 17:29 51.18088 12.11915 36788 ft 460 kts 110°
2026-05-05 17:30 51.16379 12.21747 36800 ft 460 kts 110°
2026-05-05 17:30 51.14666 12.31564 36807 ft 460 kts 110°
2026-05-05 17:31 51.12945 12.41372 36813 ft 459 kts 110°
2026-05-05 17:31 51.11227 12.51171 36794 ft 460 kts 110°
2026-05-05 17:32 51.09494 12.60956 36797 ft 460 kts 110°
2026-05-05 17:32 51.07745 12.70749 36798 ft 460 kts 110°
2026-05-05 17:33 51.05986 12.80539 36800 ft 460 kts 110°
2026-05-05 17:33 51.04226 12.90321 36783 ft 461 kts 110°
2026-05-05 17:34 51.02453 13.00110 36788 ft 461 kts 110°
2026-05-05 17:34 51.00680 13.09879 36788 ft 461 kts 110°
2026-05-05 17:35 50.98903 13.19599 36790 ft 461 kts 110°
2026-05-05 17:35 50.97097 13.29363 36795 ft 461 kts 110°
2026-05-05 17:36 50.95288 13.39126 36782 ft 461 kts 110°
2026-05-05 17:36 50.93472 13.48889 36786 ft 462 kts 110°
2026-05-05 17:37 50.91649 13.58657 36789 ft 462 kts 110°
2026-05-05 17:37 50.89821 13.68414 36798 ft 462 kts 110°
2026-05-05 17:38 50.87976 13.78161 36798 ft 462 kts 110°
2026-05-05 17:38 50.86433 13.86251 36793 ft 462 kts 110°
2026-05-05 17:39 50.84231 13.97558 36791 ft 460 kts 115°
2026-05-05 17:39 50.81259 14.06381 36789 ft 453 kts 127°
2026-05-05 17:40 50.78439 14.13365 36789 ft 453 kts 127°
2026-05-05 17:40 50.75047 14.21744 36777 ft 453 kts 127°
2026-05-05 17:41 50.71639 14.30133 36767 ft 454 kts 127°
2026-05-05 17:41 50.68228 14.38524 36758 ft 454 kts 127°
2026-05-05 17:42 50.64812 14.46900 36781 ft 454 kts 127°
2026-05-05 17:42 50.61383 14.55271 36780 ft 454 kts 127°
2026-05-05 17:43 50.57956 14.63609 36758 ft 454 kts 126°
2026-05-05 17:43 50.54513 14.71947 36751 ft 454 kts 126°
2026-05-05 17:44 50.51071 14.80279 36753 ft 454 kts 126°
2026-05-05 17:44 50.47627 14.88597 36745 ft 454 kts 127°
2026-05-05 17:45 50.44170 14.96904 36726 ft 454 kts 126°
2026-05-05 17:45 50.40729 15.05130 36727 ft 454 kts 126°
2026-05-05 17:46 50.37260 15.13410 36732 ft 455 kts 127°
2026-05-05 17:46 50.33783 15.21689 36738 ft 455 kts 127°
2026-05-05 17:47 50.30300 15.29945 36732 ft 454 kts 127°
2026-05-05 17:47 50.26815 15.38193 36727 ft 454 kts 126°
2026-05-05 17:48 50.23323 15.46419 36743 ft 454 kts 127°
2026-05-05 17:48 50.19825 15.54638 36750 ft 454 kts 127°
2026-05-05 17:49 50.16327 15.62838 36755 ft 453 kts 127°
2026-05-05 17:49 50.12843 15.70969 36759 ft 453 kts 127°
2026-05-05 17:50 50.09335 15.79135 36750 ft 453 kts 127°
2026-05-05 17:50 50.05822 15.87285 36752 ft 453 kts 127°
2026-05-05 17:51 50.02712 15.95825 36736 ft 458 kts 113°
2026-05-05 17:51 50.01380 16.05519 36734 ft 463 kts 94°
2026-05-05 17:52 50.01070 16.15517 36729 ft 463 kts 94°
2026-05-05 17:52 50.00731 16.25470 36745 ft 463 kts 95°
2026-05-05 17:53 50.00376 16.35468 36750 ft 463 kts 95°
2026-05-05 17:53 50.00014 16.45467 36763 ft 463 kts 95°
2026-05-05 17:54 49.99643 16.55459 36763 ft 463 kts 95°
2026-05-05 17:54 49.99263 16.65466 36765 ft 463 kts 95°
2026-05-05 17:55 49.98875 16.75385 36775 ft 462 kts 95°
2026-05-05 17:55 49.98485 16.85351 36784 ft 462 kts 95°
2026-05-05 17:56 49.98094 16.95307 36784 ft 462 kts 95°
2026-05-05 17:56 49.97681 17.05264 36490 ft 462 kts 95°
2026-05-05 17:56 49.97470 17.10235 36207 ft 461 kts 95°
2026-05-05 17:57 49.97259 17.15204 35942 ft 460 kts 95°
2026-05-05 17:57 49.97048 17.20171 35687 ft 460 kts 95°
2026-05-05 17:57 49.96837 17.25078 35436 ft 461 kts 95°
2026-05-05 17:57 49.96624 17.30047 35182 ft 461 kts 95°
2026-05-05 17:58 49.96410 17.35014 34934 ft 461 kts 95°
2026-05-05 17:58 49.96191 17.39991 34693 ft 461 kts 95°
2026-05-05 17:58 49.95970 17.44961 34447 ft 462 kts 95°
2026-05-05 17:58 49.95745 17.49934 34212 ft 462 kts 95°
2026-05-05 17:59 49.95519 17.54915 33957 ft 462 kts 94°
2026-05-05 17:59 49.95290 17.59905 33710 ft 464 kts 94°
2026-05-05 17:59 49.95059 17.64915 33434 ft 465 kts 94°
2026-05-05 17:59 49.94825 17.69922 33159 ft 466 kts 94°
2026-05-05 18:00 49.94585 17.74941 32885 ft 466 kts 95°
2026-05-05 18:00 49.94339 17.79966 32620 ft 466 kts 95°
2026-05-05 18:00 49.94094 17.84998 32353 ft 468 kts 95°
2026-05-05 18:00 49.93850 17.90030 32093 ft 467 kts 95°
2026-05-05 18:01 49.93609 17.94982 31837 ft 465 kts 95°
2026-05-05 18:01 49.93361 17.99970 31577 ft 463 kts 95°
2026-05-05 18:01 49.93131 18.04945 31320 ft 460 kts 92°
2026-05-05 18:01 49.93161 18.09912 31066 ft 459 kts 89°
2026-05-05 18:02 49.93233 18.14845 30821 ft 457 kts 89°
2026-05-05 18:02 49.93299 18.19769 30571 ft 455 kts 89°
2026-05-05 18:02 49.93357 18.24674 30323 ft 454 kts 89°
2026-05-05 18:02 49.93398 18.29558 30079 ft 451 kts 90°
2026-05-05 18:03 49.93347 18.34427 29832 ft 451 kts 92°
2026-05-05 18:03 49.93211 18.39252 29319 ft 445 kts 94°
2026-05-05 18:03 49.93027 18.44025 28760 ft 441 kts 94°
2026-05-05 18:03 49.92847 18.48750 28100 ft 438 kts 91°
2026-05-05 18:04 49.92865 18.53519 26963 ft 442 kts 89°
2026-05-05 18:04 49.92956 18.58191 26441 ft 425 kts 88°
2026-05-05 18:04 49.93077 18.62687 25910 ft 410 kts 88°
2026-05-05 18:04 49.93205 18.67044 25395 ft 397 kts 88°
2026-05-05 18:05 49.93326 18.71310 24929 ft 396 kts 88°
2026-05-05 18:05 49.93436 18.75581 24437 ft 396 kts 88°
2026-05-05 18:05 49.93534 18.79844 23967 ft 395 kts 89°
2026-05-05 18:05 49.93629 18.84120 22990 ft 398 kts 88°
2026-05-05 18:06 49.93720 18.88429 21869 ft 399 kts 89°
2026-05-05 18:06 49.93779 18.91287 21141 ft 399 kts 89°
2026-05-05 18:06 49.93894 18.96982 19751 ft 397 kts 89°
2026-05-05 18:06 49.93978 19.01201 19141 ft 383 kts 90°
2026-05-05 18:07 49.94059 19.05244 18642 ft 368 kts 90°
2026-05-05 18:07 49.94137 19.09140 18163 ft 354 kts 91°
2026-05-05 18:07 49.94209 19.12888 17644 ft 344 kts 92°
2026-05-05 18:07 49.94277 19.16602 17156 ft 344 kts 92°
2026-05-05 18:08 49.94342 19.20302 16693 ft 343 kts 91°
2026-05-05 18:08 49.94405 19.24008 16220 ft 342 kts 90°
2026-05-05 18:08 49.94470 19.27692 15753 ft 341 kts 90°
2026-05-05 18:08 49.94534 19.31377 15276 ft 341 kts 91°
2026-05-05 18:09 49.94595 19.35059 14795 ft 341 kts 91°
2026-05-05 18:09 49.94655 19.38743 14326 ft 341 kts 92°
2026-05-05 18:09 49.94716 19.42434 13841 ft 341 kts 92°
2026-05-05 18:09 49.94774 19.46120 13308 ft 341 kts 92°
2026-05-05 18:10 49.94962 19.49769 13007 ft 338 kts 83°
2026-05-05 18:10 49.95433 19.53339 12581 ft 337 kts 81°
2026-05-05 18:10 49.95916 19.56894 12125 ft 337 kts 81°
2026-05-05 18:10 49.96402 19.60464 11662 ft 337 kts 81°
2026-05-05 18:11 49.96887 19.64018 11207 ft 337 kts 81°
2026-05-05 18:11 49.97372 19.67574 10760 ft 336 kts 81°
2026-05-05 18:11 49.97853 19.71123 10393 ft 333 kts 81°
2026-05-05 18:11 49.98318 19.74550 10155 ft 315 kts 81°
2026-05-05 18:12 49.98763 19.77832 9756 ft 305 kts 81°
2026-05-05 18:12 49.99192 19.81009 9629 ft 305 kts 81°
2026-05-05 18:12 49.99629 19.84249 9466 ft 309 kts 81°
2026-05-05 18:12 50.00072 19.87555 8957 ft 313 kts 81°
2026-05-05 18:13 50.00512 19.90837 8708 ft 308 kts 81°
2026-05-05 18:13 50.00942 19.94016 8440 ft 295 kts 82°
2026-05-05 18:13 50.01361 19.97101 8013 ft 288 kts 82°
2026-05-05 18:13 50.01771 20.00111 7575 ft 282 kts 82°
2026-05-05 18:14 50.02174 20.03061 7159 ft 276 kts 82°
2026-05-05 18:14 50.02572 20.05970 6685 ft 274 kts 82°
2026-05-05 18:14 50.03229 20.08739 6208 ft 277 kts 56°
2026-05-05 18:14 50.04708 20.10602 5698 ft 277 kts 19°
2026-05-05 18:15 50.06566 20.10912 5199 ft 266 kts 344°
2026-05-05 18:15 50.08312 20.10092 4713 ft 261 kts 340°
2026-05-05 18:15 50.10048 20.09314 4210 ft 255 kts 330°
2026-05-05 18:15 50.11251 20.07585 4036 ft 222 kts 288°
2026-05-05 18:16 50.11467 20.05329 3888 ft 206 kts 253°
2026-05-05 18:16 50.11065 20.03270 3612 ft 195 kts 250°
2026-05-05 18:16 50.10768 20.01251 3367 ft 188 kts 253°
2026-05-05 18:16 50.10530 19.99303 3113 ft 176 kts 254°
2026-05-05 18:17 50.10322 19.97537 3034 ft 159 kts 252°
2026-05-05 18:17 50.10117 19.95877 2913 ft 155 kts 254°
2026-05-05 18:17 50.09919 19.94321 2678 ft 140 kts 253°
2026-05-05 18:17 50.09728 19.92862 2484 ft 136 kts 253°
2026-05-05 18:18 50.09538 19.91434 2314 ft 136 kts 253°
2026-05-05 18:18 50.09345 19.90005 2120 ft 135 kts 252°
2026-05-05 18:18 50.09150 19.88564 1938 ft 137 kts 254°
2026-05-05 18:18 50.08960 19.87087 1763 ft 141 kts 257°
2026-05-05 18:19 50.08793 19.85604 1605 ft 138 kts 252°
2026-05-05 18:19 50.08569 19.84144 1393 ft 141 kts 254°
2026-05-05 18:19 50.08358 19.82656 1196 ft 142 kts 256°
2026-05-05 18:19 50.08149 19.81180 986 ft 139 kts 257°
2026-05-05 18:20 50.07950 19.79746 823 ft 131 kts 257°
2026-05-05 18:20 50.07828 19.78893 802 ft 110 kts 257°
2026-05-05 18:20 50.07722 19.78133 799 ft 12 kts 242°
2026-05-05 18:20 50.07658 19.78092 799 ft 9 kts 175°
2026-05-05 18:21 50.07591 19.78092 800 ft 11 kts 184°
2026-05-05 18:21 50.07511 19.78083 800 ft 12 kts 179°
2026-05-05 18:21 50.07478 19.78190 800 ft 14 kts 79°
2026-05-05 18:21 50.07501 19.78347 800 ft 16 kts 77°
2026-05-05 18:22 50.07526 19.78529 800 ft 18 kts 77°
2026-05-05 18:22 50.07553 19.78723 800 ft 19 kts 78°
2026-05-05 18:22 50.07581 19.78925 800 ft 14 kts 77°
2026-05-05 18:22 50.07604 19.79087 800 ft 16 kts 77°
2026-05-05 18:23 50.07625 19.79235 800 ft 14 kts 78°
2026-05-05 18:23 50.07646 19.79395 800 ft 16 kts 78°
2026-05-05 18:23 50.07670 19.79559 800 ft 17 kts 78°
2026-05-05 18:23 50.07665 19.79686 800 ft 7 kts 135°
2026-05-05 18:24 50.07610 19.79712 800 ft 10 kts 168°
2026-05-05 18:24 50.07535 19.79737 800 ft 12 kts 168°
2026-05-05 18:24 50.07441 19.79768 800 ft 15 kts 168°
2026-05-05 18:24 50.07370 19.79832 800 ft 12 kts 98°
2026-05-05 18:25 50.07391 19.79968 800 ft 14 kts 77°
2026-05-05 18:25 50.07398 19.80019 800 ft 15 kts 77°
2026-05-05 18:25 50.07388 19.80174 800 ft 8 kts 170°
2026-05-05 18:25 50.07340 19.80191 800 ft 3 kts 168°
2026-05-05 18:26 50.07334 19.80193 800 ft 0 kts 167°